PBO Station Position Time Series. Reference Frame : NAM14
Format Version,1.1.0
4-character ID,RCSC
Station name,SanClementeCA201
Begin Date, 2016-12-29
End Date, 2019-10-07
Release Date, 2019-10-08
Reference position, 33.4441446127 North Latitude, -117.5864767566 East Longitude, 160.96783 meters elevation,
Date, North (mm), East (mm), Vertical (mm), North Std. Deviation (mm), East Std. Deviation (mm),              Vertical Std. Deviation (mm), Quality,
2016-12-29,0.00, 0.00, 0.00, 1.83, 1.61, 7.16, repro,
2016-12-30,-0.47, -1.58, 2.91, 1.83, 1.65, 7.22, repro,
2016-12-31,-1.17, -0.81, 3.40, 1.81, 1.62, 7.09, repro,
2017-01-01,-0.98, -0.10, 11.69, 1.85, 1.63, 7.20, repro,
2017-01-02,-0.83, -0.70, 5.76, 1.84, 1.61, 7.13, repro,
2017-01-03,-1.03, -0.37, -6.45, 1.85, 1.64, 7.27, repro,
2017-01-04,-0.26, -1.15, -2.12, 1.82, 1.64, 7.20, repro,
2017-01-05,-0.48, -2.06, 7.51, 1.81, 1.60, 7.07, repro,
2017-01-06,-0.04, -1.23, 2.30, 1.82, 1.60, 7.07, repro,
2017-01-07,0.32, -0.74, -0.57, 1.96, 1.75, 7.72, repro,
2017-01-08,0.31, -0.10, -1.42, 1.82, 1.59, 7.06, repro,
2017-01-09,2.90, -2.10, 3.76, 1.89, 1.67, 7.39, repro,
2017-01-10,-0.38, -1.12, 3.00, 1.88, 1.63, 7.31, repro,
2017-01-11,-0.58, -1.52, 5.08, 1.85, 1.64, 7.26, repro,
2017-01-12,-0.08, -1.68, 0.93, 1.84, 1.62, 7.16, repro,
2017-01-13,-0.39, -0.98, -2.07, 1.83, 1.60, 7.10, repro,
2017-01-14,-0.10, -1.52, -6.35, 1.83, 1.61, 7.15, repro,
2017-01-15,-0.89, -2.25, -1.26, 1.81, 1.59, 7.02, repro,
2017-01-16,0.52, -2.09, -5.40, 1.89, 1.69, 7.57, repro,
2017-01-17,-1.24, -1.00, 1.25, 1.92, 1.76, 7.44, repro,
2017-01-18,0.19, -0.92, -1.88, 1.88, 1.66, 7.28, repro,
2017-01-19,-0.30, -1.23, 8.97, 1.92, 1.72, 7.53, repro,
2017-01-20,-0.29, -1.50, 12.40, 1.82, 1.64, 7.18, repro,
2017-01-21,-0.49, -0.79, 14.56, 1.83, 1.62, 7.13, repro,
2017-01-22,0.46, 0.43, 0.40, 1.81, 1.60, 7.04, repro,
2017-01-23,1.42, 1.00, 4.40, 1.82, 1.63, 7.11, repro,
2017-01-24,1.29, -0.47, 8.60, 1.82, 1.61, 7.09, repro,
2017-01-25,0.64, 0.19, -4.54, 1.85, 1.63, 7.18, repro,
2017-01-26,1.02, 0.12, -4.59, 1.86, 1.64, 7.32, repro,
2017-01-27,1.99, 0.00, -13.87, 1.83, 1.61, 7.15, repro,
2017-01-28,2.18, 1.19, -13.02, 1.84, 1.64, 7.25, repro,
2017-01-29,0.72, -0.40, -7.00, 1.84, 1.64, 7.22, repro,
2017-01-30,0.80, -0.97, -0.58, 1.82, 1.61, 7.05, repro,
2017-01-31,1.15, -0.73, -2.62, 1.81, 1.60, 7.04, repro,
2017-02-01,-0.43, -0.82, -0.93, 1.84, 1.63, 7.20, repro,
2017-02-02,0.54, -0.23, -2.04, 1.90, 1.71, 7.59, repro,
2017-02-03,0.93, 0.97, -6.68, 1.81, 1.60, 7.04, repro,
2017-02-04,1.43, -0.76, -3.60, 1.84, 1.61, 7.18, repro,
2017-02-05,-0.27, -0.64, -0.86, 1.82, 1.61, 7.10, repro,
2017-02-06,0.84, 0.48, 3.98, 1.86, 1.67, 7.44, repro,
2017-02-07,0.68, 0.06, 0.54, 1.87, 1.63, 7.24, repro,
2017-02-08,1.02, -0.27, -0.65, 1.83, 1.62, 7.13, repro,
2017-02-09,1.12, 0.10, -5.48, 1.85, 1.65, 7.27, repro,
2017-02-10,2.49, -1.41, -4.68, 1.81, 1.60, 7.05, repro,
2017-02-11,-0.30, -0.36, -2.22, 1.83, 1.62, 7.14, repro,
2017-02-12,0.50, -0.33, -5.46, 1.82, 1.61, 7.10, repro,
2017-02-13,0.18, 0.32, -1.96, 1.82, 1.60, 7.01, repro,
2017-02-14,0.64, -1.78, -2.88, 1.82, 1.59, 7.04, repro,
2017-02-15,0.82, -0.30, 1.65, 1.82, 1.59, 7.05, repro,
2017-02-16,2.25, 0.07, 3.52, 1.81, 1.59, 7.01, repro,
2017-02-17,-1.01, -0.92, 11.85, 1.89, 1.70, 7.54, repro,
2017-02-18,0.30, -0.53, 6.43, 1.80, 1.58, 6.94, repro,
2017-02-19,-0.28, -0.55, 2.82, 1.80, 1.58, 6.97, repro,
2017-02-20,1.58, -0.44, -5.32, 1.80, 1.59, 7.00, repro,
2017-02-21,1.19, -0.42, -7.82, 1.81, 1.61, 7.04, repro,
2017-02-22,0.46, 0.07, -5.33, 1.81, 1.61, 7.07, repro,
2017-02-23,-0.38, 0.13, -2.26, 1.83, 1.65, 7.12, repro,
2017-02-24,0.29, 0.14, -6.60, 1.87, 1.65, 7.23, repro,
2017-02-25,0.62, -0.63, 0.67, 1.97, 1.67, 7.48, repro,
2017-02-26,0.81, -0.28, 2.86, 1.81, 1.60, 7.01, repro,
2017-02-27,-0.67, -1.35, 4.69, 1.85, 1.62, 7.14, repro,
2017-02-28,0.62, 0.09, 1.67, 1.82, 1.60, 7.02, repro,
2017-03-01,0.22, 0.05, -7.94, 1.83, 1.63, 7.16, repro,
2017-03-02,1.16, 0.23, -4.19, 1.82, 1.59, 7.05, repro,
2017-03-03,0.73, -0.60, -0.62, 1.80, 1.59, 7.00, repro,
2017-03-04,-0.36, -1.66, -0.39, 1.82, 1.61, 7.09, repro,
2017-03-05,-0.82, 0.15, 1.45, 1.84, 1.64, 7.24, repro,
2017-03-06,0.09, -0.41, 0.14, 1.85, 1.60, 7.13, repro,
2017-03-07,0.15, 0.96, -2.34, 1.84, 1.64, 7.06, repro,
2017-03-08,1.27, 0.05, -4.32, 1.82, 1.60, 7.05, repro,
2017-03-09,0.20, -0.37, -5.05, 1.80, 1.59, 7.01, repro,
2017-03-10,-0.51, -0.23, -5.09, 1.82, 1.62, 7.10, repro,
2017-03-11,-0.52, -1.80, -5.50, 1.86, 1.61, 7.19, repro,
2017-03-12,1.08, 0.49, -6.59, 1.79, 1.59, 6.97, repro,
2017-03-13,0.33, -0.23, -3.07, 1.82, 1.61, 7.10, repro,
2017-03-14,0.41, -0.98, 0.10, 1.81, 1.59, 7.02, repro,
2017-03-15,-0.45, -1.31, 1.29, 1.83, 1.64, 7.18, repro,
2017-03-16,0.11, 0.02, 4.92, 1.84, 1.66, 7.24, repro,
2017-03-17,0.05, -0.73, -3.37, 1.80, 1.60, 6.99, repro,
2017-03-18,1.03, -2.17, -4.47, 1.82, 1.63, 7.19, repro,
2017-03-19,-0.23, -1.29, -1.66, 1.81, 1.59, 7.03, repro,
2017-03-20,-0.29, -1.04, -2.69, 1.81, 1.61, 7.06, repro,
2017-03-21,-0.18, 0.37, 1.93, 1.85, 1.64, 7.24, repro,
2017-03-22,-0.07, -0.12, 3.39, 1.89, 1.71, 7.54, repro,
2017-03-23,0.31, -0.35, 3.50, 1.85, 1.67, 7.22, repro,
2017-03-24,0.32, -0.85, -7.57, 1.83, 1.65, 7.14, repro,
2017-03-25,0.62, 0.25, 0.29, 1.85, 1.63, 7.22, repro,
2017-03-26,0.34, -1.03, 3.04, 1.84, 1.62, 7.15, repro,
2017-03-27,0.73, -1.46, -3.98, 1.83, 1.62, 7.18, repro,
2017-03-28,0.80, -2.66, -0.56, 1.88, 1.66, 7.20, repro,
2017-03-29,0.92, -2.23, -1.23, 1.85, 1.65, 7.26, repro,
2017-03-30,-0.01, -0.93, -3.32, 1.81, 1.62, 7.08, repro,
2017-03-31,-0.10, -1.93, 2.34, 1.81, 1.60, 7.01, repro,
2017-04-01,-0.13, -1.25, 2.61, 1.81, 1.59, 6.99, repro,
2017-04-02,0.29, -0.86, -3.20, 1.83, 1.65, 7.13, repro,
2017-04-03,0.30, -1.38, 0.41, 1.81, 1.59, 6.99, repro,
2017-04-04,-0.65, -1.98, -1.41, 1.83, 1.61, 7.15, repro,
2017-04-05,0.21, -1.90, -3.02, 1.82, 1.60, 7.11, repro,
2017-04-06,0.47, -1.61, -2.29, 1.92, 1.69, 7.40, repro,
2017-04-07,1.67, -1.67, 1.80, 1.82, 1.61, 7.12, repro,
2017-04-08,0.84, -2.14, 5.01, 1.83, 1.63, 7.14, repro,
2017-04-09,0.25, -1.38, 0.48, 1.83, 1.60, 7.07, repro,
2017-04-10,0.49, -2.53, -6.76, 1.81, 1.60, 7.02, repro,
2017-04-11,-0.58, -1.80, -0.80, 1.84, 1.61, 7.15, repro,
2017-04-12,-0.27, -1.70, -1.67, 1.84, 1.67, 7.28, repro,
2017-04-13,-0.90, -1.61, 2.38, 1.86, 1.65, 7.32, repro,
2017-04-14,0.82, -1.58, -4.30, 1.86, 1.65, 7.25, repro,
2017-04-15,0.49, -2.67, -4.19, 1.84, 1.60, 7.14, repro,
2017-04-16,0.81, -1.70, -1.43, 1.81, 1.59, 7.04, repro,
2017-04-17,0.40, -0.97, -2.11, 1.82, 1.59, 7.06, repro,
2017-04-18,-0.45, -2.67, 4.17, 1.86, 1.67, 7.29, repro,
2017-04-19,0.72, -1.46, -1.36, 1.84, 1.63, 7.18, repro,
2017-04-20,1.06, -3.03, -4.64, 1.85, 1.61, 7.17, repro,
2017-04-21,0.45, -2.23, -2.63, 1.85, 1.65, 7.16, repro,
2017-04-22,-0.61, -2.50, -1.82, 1.82, 1.59, 6.98, repro,
2017-04-23,-0.53, -2.83, -0.77, 1.81, 1.59, 6.97, repro,
2017-04-24,0.20, -3.01, 0.53, 1.82, 1.62, 7.08, repro,
2017-04-25,-0.63, -2.62, -1.39, 1.99, 1.77, 7.71, repro,
2017-04-26,0.24, -2.54, -1.44, 1.83, 1.61, 7.07, repro,
2017-04-27,0.54, -3.34, -4.29, 1.84, 1.63, 7.21, repro,
2017-04-28,1.29, -2.10, 2.65, 1.83, 1.62, 7.16, repro,
2017-04-29,0.66, -1.35, -3.48, 1.87, 1.64, 7.22, repro,
2017-04-30,1.13, -2.22, -2.97, 1.82, 1.58, 7.03, repro,
2017-05-01,-0.29, -2.19, -0.01, 1.81, 1.58, 6.98, repro,
2017-05-02,0.15, -2.95, -5.32, 1.81, 1.59, 7.00, repro,
2017-05-03,-0.42, -2.37, -0.96, 1.81, 1.59, 7.02, repro,
2017-05-04,1.09, -1.49, -1.18, 1.80, 1.57, 6.94, repro,
2017-05-05,0.24, -1.06, -1.23, 1.85, 1.60, 7.19, repro,
2017-05-06,-1.16, -2.51, -1.64, 1.81, 1.59, 7.04, repro,
2017-05-07,-1.21, -0.61, 3.37, 1.86, 1.68, 7.34, repro,
2017-05-08,-0.42, -0.71, 1.09, 1.90, 1.72, 7.53, repro,
2017-05-09,-0.43, -1.42, -1.74, 1.82, 1.60, 7.08, repro,
2017-05-10,0.19, -0.72, -1.17, 1.81, 1.58, 6.98, repro,
2017-05-11,-0.25, -1.43, -5.10, 1.85, 1.66, 7.26, repro,
2017-05-12,-0.82, -1.04, -4.23, 1.81, 1.58, 6.98, repro,
2017-05-13,0.51, -1.94, 3.79, 1.82, 1.61, 7.06, repro,
2017-05-14,0.23, -1.30, -0.15, 1.83, 1.62, 7.12, repro,
2017-05-15,-0.71, -1.10, 5.22, 1.81, 1.60, 7.03, repro,
2017-05-16,0.50, -1.88, 4.92, 1.80, 1.58, 6.94, repro,
2017-05-17,-0.60, -1.95, 7.31, 1.83, 1.61, 7.12, repro,
2017-05-18,0.22, -2.39, -0.45, 1.87, 1.70, 7.50, repro,
2017-05-19,1.75, -2.51, -4.32, 1.86, 1.61, 7.18, repro,
2017-05-20,2.08, -1.91, 3.87, 1.82, 1.60, 7.09, repro,
2017-05-21,-0.08, -2.67, 1.39, 1.80, 1.58, 6.94, repro,
2017-05-22,1.04, -3.08, 2.60, 1.84, 1.62, 7.23, repro,
2017-05-23,-0.13, -3.02, 2.35, 1.85, 1.60, 7.09, repro,
2017-05-24,0.71, -2.33, 4.64, 1.85, 1.62, 7.19, repro,
2017-05-25,1.02, -2.82, 8.68, 1.82, 1.60, 7.06, repro,
2017-05-26,0.49, -1.49, 4.19, 1.86, 1.68, 7.33, repro,
2017-05-27,0.01, -2.22, -1.99, 1.82, 1.59, 7.01, repro,
2017-05-28,0.20, -2.25, 1.50, 1.82, 1.60, 7.04, repro,
2017-05-29,0.61, -2.23, 3.30, 1.82, 1.61, 7.06, repro,
2017-05-30,-0.59, -3.41, 1.08, 1.81, 1.62, 7.09, repro,
2017-05-31,1.55, -2.21, 8.20, 1.86, 1.67, 7.25, repro,
2017-06-01,-0.23, -3.20, 6.55, 1.80, 1.61, 7.01, repro,
2017-06-02,1.07, -2.48, 10.36, 1.85, 1.67, 7.24, repro,
2017-06-03,0.15, -2.88, 6.03, 1.82, 1.59, 7.02, repro,
2017-06-04,0.22, -1.90, 3.37, 1.81, 1.62, 7.06, repro,
2017-06-05,-0.16, -2.16, 4.94, 1.79, 1.58, 6.95, repro,
2017-06-06,0.05, -2.45, 6.47, 1.83, 1.65, 7.11, repro,
2017-06-07,0.40, -2.55, 1.40, 1.88, 1.63, 7.19, repro,
2017-06-08,-0.03, -2.99, 3.40, 1.83, 1.60, 7.08, repro,
2017-06-09,1.06, -3.28, 8.05, 1.82, 1.60, 7.07, repro,
2017-06-10,-0.16, -2.68, 4.81, 1.82, 1.61, 7.08, repro,
2017-06-11,0.41, -3.12, 6.76, 1.84, 1.65, 7.15, repro,
2017-06-12,0.42, -3.35, 5.09, 1.81, 1.60, 7.00, repro,
2017-06-13,0.92, -3.07, 5.20, 1.83, 1.59, 7.07, repro,
2017-06-14,0.75, -2.19, 6.18, 1.82, 1.59, 7.02, repro,
2017-06-15,0.58, -2.52, 0.11, 1.81, 1.62, 7.01, repro,
2017-06-16,0.77, -3.57, 4.25, 2.01, 1.82, 7.75, repro,
2017-06-17,1.80, -3.00, 3.56, 1.82, 1.59, 7.05, repro,
2017-06-18,0.63, -4.01, 5.12, 1.83, 1.62, 7.13, repro,
2017-06-19,0.28, -3.00, 0.82, 1.80, 1.58, 6.95, repro,
2017-06-20,1.45, -2.76, 0.01, 1.85, 1.59, 7.03, repro,
2017-06-21,0.73, -3.18, 4.94, 1.80, 1.60, 6.99, repro,
2017-06-22,-0.50, -3.99, 5.22, 1.81, 1.59, 7.02, repro,
2017-06-23,0.35, -2.59, 5.96, 1.82, 1.60, 7.07, repro,
2017-06-24,2.41, -1.40, -2.09, 1.81, 1.59, 7.05, repro,
2017-06-25,0.93, -2.62, -2.62, 1.83, 1.63, 7.09, repro,
2017-06-26,-0.11, -2.70, 2.73, 1.80, 1.58, 6.94, repro,
2017-06-27,-0.26, -3.91, 5.78, 1.80, 1.59, 6.94, repro,
2017-06-28,-0.44, -3.74, 6.52, 1.84, 1.63, 7.13, repro,
2017-06-29,0.28, -2.46, 10.26, 1.83, 1.60, 7.07, repro,
2017-06-30,-1.03, -2.79, 1.59, 2.01, 1.82, 7.94, repro,
2017-07-01,1.03, -2.18, -2.48, 1.84, 1.63, 7.10, repro,
2017-07-02,0.35, -3.04, 2.63, 1.84, 1.63, 7.13, repro,
2017-07-03,0.02, -2.61, 1.94, 1.80, 1.58, 6.95, repro,
2017-07-04,-1.25, -1.24, 4.59, 1.84, 1.65, 7.16, repro,
2017-07-05,0.92, -2.67, -2.97, 1.81, 1.59, 7.02, repro,
2017-07-06,1.64, -2.16, 2.36, 1.89, 1.59, 7.14, repro,
2017-07-07,1.21, -2.01, 0.54, 1.89, 1.59, 7.10, repro,
2017-07-08,1.46, -2.70, 1.95, 1.90, 1.61, 7.21, repro,
2017-07-09,-0.35, -2.29, -3.29, 1.80, 1.58, 6.94, repro,
2017-07-10,0.77, -2.66, 10.63, 1.81, 1.59, 6.97, repro,
2017-07-11,1.00, -2.60, 4.68, 1.82, 1.57, 6.92, repro,
2017-07-12,0.26, -2.29, 5.43, 1.87, 1.63, 7.18, repro,
2017-07-13,0.68, -2.70, 5.93, 1.86, 1.67, 7.19, repro,
2017-07-14,-0.08, -2.75, 4.20, 1.83, 1.61, 7.07, repro,
2017-07-15,0.37, -3.12, 3.53, 1.90, 1.65, 7.30, repro,
2017-07-16,-0.55, -3.43, 8.29, 1.83, 1.60, 7.03, repro,
2017-07-17,1.17, -3.11, 10.56, 1.83, 1.62, 7.14, repro,
2017-07-18,-1.12, -2.98, 2.36, 1.83, 1.61, 7.07, repro,
2017-07-19,1.06, -2.68, 8.54, 1.85, 1.63, 7.24, repro,
2017-07-20,0.92, -2.46, 4.67, 1.87, 1.69, 7.34, repro,
2017-07-21,0.03, -2.92, 3.13, 1.83, 1.62, 7.11, repro,
2017-07-22,-1.43, -4.10, 7.38, 1.87, 1.68, 7.43, repro,
2017-07-23,0.80, -2.50, 3.69, 1.87, 1.66, 7.36, repro,
2017-07-24,-2.12, -3.91, 4.75, 1.85, 1.67, 7.30, repro,
2017-07-25,0.05, -2.57, 3.82, 1.88, 1.70, 7.50, repro,
2017-07-26,-0.02, -3.00, 3.53, 1.85, 1.65, 7.22, repro,
2017-07-27,1.29, -3.58, 1.41, 1.88, 1.64, 7.31, repro,
2017-07-28,1.59, -3.11, -0.34, 1.84, 1.63, 7.16, repro,
2017-07-29,0.00, -3.32, 10.10, 1.83, 1.66, 7.23, repro,
2017-07-30,0.30, -3.39, 2.44, 1.84, 1.63, 7.18, repro,
2017-07-31,-0.20, -2.71, 1.77, 1.83, 1.63, 7.12, repro,
2017-08-01,-1.97, -3.58, 1.77, 1.83, 1.62, 7.09, repro,
2017-08-02,0.27, -3.05, -1.04, 1.85, 1.63, 7.24, repro,
2017-08-03,2.78, -6.27, 4.59, 1.85, 1.61, 7.10, repro,
2017-08-04,3.38, -6.66, 1.91, 1.88, 1.67, 7.40, repro,
2017-08-05,2.78, -7.24, -0.02, 1.83, 1.62, 7.13, repro,
2017-08-06,3.65, -5.77, -3.27, 1.83, 1.62, 7.13, repro,
2017-08-07,1.81, -6.54, 4.38, 1.84, 1.64, 7.22, repro,
2017-08-08,1.67, -6.97, 0.67, 1.83, 1.63, 7.20, repro,
2017-08-09,2.99, -6.38, -1.24, 1.82, 1.62, 7.10, repro,
2017-08-10,2.85, -7.96, -2.34, 1.81, 1.60, 6.98, repro,
2017-08-11,3.07, -7.59, -1.01, 1.93, 1.71, 7.54, repro,
2017-08-12,2.81, -6.82, 5.33, 1.84, 1.64, 7.17, repro,
2017-08-13,2.50, -7.36, 7.56, 1.84, 1.63, 7.17, repro,
2017-08-14,2.25, -8.23, 4.97, 1.91, 1.70, 7.48, repro,
2017-08-15,2.50, -6.02, 1.76, 1.91, 1.77, 7.68, repro,
2017-08-16,2.66, -6.14, 4.78, 1.90, 1.72, 7.55, repro,
2017-08-17,2.52, -7.20, -0.04, 1.92, 1.73, 7.51, repro,
2017-08-18,4.56, -7.50, 1.07, 1.91, 1.72, 7.45, repro,
2017-08-19,2.55, -6.20, -2.68, 1.90, 1.71, 7.44, repro,
2017-08-20,1.81, -6.55, -2.01, 1.87, 1.68, 7.43, repro,
2017-08-21,3.54, -5.96, 1.32, 1.85, 1.65, 7.24, repro,
2017-08-22,2.74, -5.62, 0.80, 1.89, 1.67, 7.35, repro,
2017-08-23,3.46, -6.65, 4.50, 1.89, 1.68, 7.43, repro,
2017-08-24,1.44, -7.11, -3.13, 1.87, 1.67, 7.33, repro,
2017-08-25,1.80, -6.38, 3.06, 1.86, 1.62, 7.19, repro,
2017-08-26,1.87, -8.05, 2.03, 1.82, 1.60, 7.04, repro,
2017-08-27,1.38, -5.83, -2.03, 1.82, 1.60, 7.00, repro,
2017-08-28,2.11, -7.10, 3.30, 1.87, 1.63, 7.10, repro,
2017-08-29,1.33, -7.10, -1.51, 1.90, 1.67, 7.22, repro,
2017-08-30,2.43, -6.52, -0.63, 1.80, 1.58, 6.88, repro,
2017-08-31,1.11, -8.11, 3.90, 1.84, 1.62, 7.04, repro,
2017-09-01,3.61, -7.33, 2.45, 1.90, 1.68, 7.22, repro,
2017-09-02,2.56, -7.34, 7.77, 1.82, 1.59, 7.00, repro,
2017-09-03,2.87, -5.65, 6.19, 1.90, 1.66, 7.24, repro,
2017-09-04,2.09, -8.15, 0.00, 1.83, 1.64, 7.15, repro,
2017-09-05,2.06, -7.23, 0.36, 1.88, 1.68, 7.29, repro,
2017-09-06,3.08, -6.62, 0.25, 1.81, 1.59, 6.93, repro,
2017-09-07,2.93, -7.30, 3.82, 1.87, 1.70, 7.33, repro,
2017-09-08,3.30, -7.93, 6.30, 1.84, 1.65, 7.17, repro,
2017-09-09,3.17, -7.75, -2.12, 1.87, 1.70, 7.31, repro,
2017-09-10,2.54, -6.13, 8.10, 1.82, 1.60, 6.98, repro,
2017-09-11,2.38, -9.14, -4.44, 1.80, 1.60, 6.92, repro,
2017-09-12,1.36, -6.32, 7.91, 1.84, 1.63, 7.03, repro,
2017-09-13,0.49, -7.10, 4.38, 1.86, 1.67, 7.19, repro,
2017-09-14,2.24, -7.08, 12.77, 1.88, 1.72, 7.32, repro,
2017-09-15,1.52, -7.06, 6.05, 2.08, 2.04, 8.34, repro,
2017-09-16,2.20, -6.53, 10.58, 1.90, 1.73, 7.56, repro,
2017-09-17,1.02, -7.34, 0.62, 1.85, 1.67, 7.18, repro,
2017-09-18,1.30, -7.00, 6.73, 1.83, 1.61, 7.07, repro,
2017-09-19,1.51, -6.76, 14.23, 1.84, 1.64, 7.22, repro,
2017-09-20,2.00, -7.39, 7.13, 1.92, 1.72, 7.52, repro,
2017-09-21,1.70, -6.84, 8.36, 1.94, 1.67, 7.30, repro,
2017-09-22,0.39, -5.90, 3.61, 1.81, 1.60, 6.96, repro,
2017-09-23,3.31, -5.91, 5.51, 1.84, 1.61, 7.07, repro,
2017-09-24,1.70, -6.29, 7.76, 1.84, 1.63, 7.16, repro,
2017-09-25,0.79, -7.09, 8.69, 1.82, 1.59, 7.00, repro,
2017-09-26,1.71, -6.21, 8.62, 1.82, 1.59, 6.97, repro,
2017-09-27,0.12, -5.75, -1.66, 1.81, 1.60, 6.99, repro,
2017-09-28,1.68, -6.23, 0.75, 1.89, 1.66, 7.47, repro,
2017-09-29,0.99, -6.34, 0.93, 1.82, 1.62, 7.06, repro,
2017-09-30,0.90, -6.98, 4.19, 1.83, 1.60, 7.03, repro,
2017-10-01,1.54, -8.50, 6.81, 1.85, 1.61, 7.12, repro,
2017-10-02,2.12, -6.12, 1.54, 1.88, 1.68, 7.38, repro,
2017-10-03,1.55, -6.39, 3.38, 1.82, 1.62, 7.06, repro,
2017-10-04,2.36, -5.99, -0.94, 1.89, 1.67, 7.41, repro,
2017-10-05,1.52, -5.72, -0.97, 1.83, 1.62, 7.10, repro,
2017-10-06,1.27, -6.06, 4.17, 1.84, 1.62, 7.10, repro,
2017-10-07,2.62, -6.94, 7.03, 1.82, 1.60, 6.98, repro,
2017-10-08,1.85, -7.35, 7.76, 1.81, 1.60, 7.02, repro,
2017-10-09,2.02, -7.42, 4.44, 1.83, 1.61, 7.04, repro,
2017-10-10,1.69, -6.71, 2.39, 1.82, 1.62, 7.03, repro,
2017-10-11,1.09, -5.65, 1.91, 1.84, 1.62, 7.07, repro,
2017-10-12,1.16, -7.24, 5.05, 1.87, 1.65, 7.19, repro,
2017-10-13,3.11, -6.19, 2.44, 1.83, 1.63, 7.14, repro,
2017-10-14,1.80, -5.82, 1.95, 1.83, 1.63, 7.10, repro,
2017-10-15,2.35, -6.39, -1.57, 1.82, 1.61, 7.00, repro,
2017-10-16,2.46, -7.91, -1.94, 1.83, 1.66, 7.09, repro,
2017-10-17,1.81, -6.81, 8.31, 1.82, 1.60, 6.99, repro,
2017-10-18,2.84, -8.09, 8.24, 1.81, 1.59, 6.95, repro,
2017-10-19,1.77, -7.27, 12.21, 1.86, 1.65, 7.16, repro,
2017-10-20,2.15, -6.28, 4.94, 1.93, 1.73, 7.53, repro,
2017-10-21,3.73, -6.86, 8.72, 1.88, 1.68, 7.36, repro,
2017-10-22,2.65, -6.59, 3.94, 1.89, 1.64, 7.31, repro,
2017-10-23,2.18, -7.26, -3.61, 1.83, 1.61, 7.00, repro,
2017-10-24,2.90, -6.94, -0.29, 1.81, 1.58, 6.92, repro,
2017-10-25,3.62, -7.04, 2.29, 1.83, 1.60, 7.00, repro,
2017-10-26,2.30, -5.83, 5.22, 1.80, 1.59, 6.91, repro,
2017-10-27,1.06, -5.49, -1.34, 1.87, 1.61, 7.07, repro,
2017-10-28,1.32, -6.17, 0.62, 1.80, 1.58, 6.87, repro,
2017-10-29,2.31, -6.13, 4.86, 1.81, 1.59, 6.93, repro,
2017-10-30,1.32, -5.75, 0.22, 1.83, 1.61, 7.04, repro,
2017-10-31,1.28, -6.18, 7.33, 1.85, 1.66, 7.23, repro,
2017-11-01,1.77, -5.12, 4.95, 1.84, 1.64, 7.16, repro,
2017-11-02,1.60, -5.51, 2.94, 1.91, 1.68, 7.32, repro,
2017-11-03,1.49, -4.47, -4.95, 1.84, 1.61, 7.11, repro,
2017-11-04,0.50, -5.02, 1.26, 1.82, 1.60, 7.00, repro,
2017-11-05,0.64, -5.43, 0.62, 1.82, 1.60, 7.00, repro,
2017-11-06,0.97, -5.30, -4.92, 1.82, 1.60, 6.97, repro,
2017-11-07,1.85, -4.50, 1.42, 1.82, 1.60, 6.97, repro,
2017-11-08,2.19, -4.78, -5.90, 1.84, 1.63, 7.10, repro,
2017-11-09,1.72, -4.27, -1.27, 1.86, 1.68, 7.25, repro,
2017-11-10,1.29, -4.59, 1.84, 1.86, 1.65, 7.18, repro,
2017-11-11,1.78, -6.35, 0.46, 1.88, 1.70, 7.32, repro,
2017-11-12,1.75, -4.02, 0.04, 1.85, 1.66, 7.21, repro,
2017-11-13,1.73, -5.59, 7.64, 1.85, 1.66, 7.23, repro,
2017-11-14,1.89, -3.74, 3.11, 1.82, 1.62, 7.06, repro,
2017-11-15,1.82, -4.10, 1.60, 1.82, 1.62, 7.05, repro,
2017-11-16,1.36, -5.13, 2.63, 1.88, 1.69, 7.27, repro,
2017-11-17,2.23, -5.80, 4.02, 1.84, 1.65, 7.09, repro,
2017-11-18,1.88, -5.18, 6.07, 1.81, 1.60, 6.93, repro,
2017-11-19,1.70, -3.97, 5.56, 1.82, 1.60, 7.00, repro,
2017-11-20,1.37, -4.44, 8.26, 1.86, 1.62, 7.22, repro,
2017-11-21,1.17, -4.57, -0.97, 1.81, 1.59, 6.90, repro,
2017-11-22,2.46, -5.44, -1.04, 1.82, 1.61, 6.98, repro,
2017-11-23,1.68, -4.88, 3.65, 1.80, 1.58, 6.88, repro,
2017-11-24,2.38, -5.76, 7.36, 1.80, 1.58, 6.91, repro,
2017-11-25,2.61, -5.83, 0.88, 1.85, 1.63, 7.11, repro,
2017-11-26,3.00, -4.25, -0.32, 1.85, 1.64, 7.17, repro,
2017-11-27,1.38, -5.11, 6.48, 1.83, 1.63, 7.09, repro,
2017-11-28,1.50, -4.90, 3.12, 1.85, 1.66, 7.17, repro,
2017-11-29,1.66, -5.44, 5.99, 1.87, 1.64, 7.22, repro,
2017-11-30,1.15, -5.02, 2.19, 1.88, 1.65, 7.28, repro,
2017-12-01,2.40, -4.06, -0.20, 2.00, 1.72, 7.56, repro,
2017-12-02,0.94, -4.87, 3.93, 1.83, 1.63, 7.02, repro,
2017-12-03,0.89, -6.05, 4.85, 1.83, 1.63, 7.05, repro,
2017-12-04,1.38, -4.88, 5.68, 1.82, 1.60, 6.97, repro,
2017-12-05,1.49, -4.64, 2.69, 1.90, 1.71, 7.37, repro,
2017-12-06,1.84, -5.60, -2.86, 1.89, 1.67, 7.35, repro,
2017-12-07,2.28, -4.10, 0.59, 1.91, 1.71, 7.46, repro,
2017-12-08,2.62, -3.53, 2.17, 1.81, 1.59, 6.91, repro,
2017-12-09,1.83, -4.82, 3.22, 1.81, 1.58, 6.89, repro,
2017-12-10,2.55, -5.16, -3.36, 1.80, 1.60, 6.92, repro,
2017-12-11,1.53, -5.43, 0.57, 1.98, 1.82, 7.59, repro,
2017-12-12,0.88, -3.95, 1.24, 1.80, 1.58, 6.90, repro,
2017-12-13,1.08, -5.18, 1.00, 1.82, 1.59, 6.95, repro,
2017-12-14,0.13, -5.34, 3.99, 1.83, 1.65, 7.00, repro,
2017-12-15,0.84, -4.72, -2.89, 1.79, 1.58, 6.85, repro,
2017-12-16,0.66, -6.58, 2.29, 1.80, 1.60, 6.97, repro,
2017-12-17,0.44, -5.82, -0.41, 1.80, 1.59, 6.91, repro,
2017-12-18,-0.05, -4.78, 1.60, 1.95, 1.76, 7.51, repro,
2017-12-19,0.41, -2.82, 2.77, 1.86, 1.61, 7.06, repro,
2017-12-20,1.70, -5.22, -1.72, 1.86, 1.70, 7.31, repro,
2017-12-21,0.31, -4.95, 3.80, 1.81, 1.61, 6.91, repro,
2017-12-22,-0.06, -3.60, 6.47, 1.82, 1.59, 6.95, repro,
2017-12-23,0.75, -3.66, 4.72, 1.82, 1.59, 6.94, repro,
2017-12-24,-0.23, -3.71, 0.90, 1.83, 1.59, 7.00, repro,
2017-12-25,-0.24, -3.80, -1.34, 1.83, 1.61, 7.00, repro,
2017-12-26,1.48, -4.13, -2.36, 1.84, 1.62, 7.07, repro,
2017-12-27,0.97, -3.59, -4.22, 1.86, 1.61, 7.04, repro,
2017-12-28,1.30, -4.64, 2.88, 1.84, 1.59, 6.96, repro,
2017-12-29,0.92, -4.48, 6.69, 1.84, 1.60, 6.99, repro,
2017-12-30,1.13, -3.89, 1.18, 1.82, 1.59, 6.96, repro,
2017-12-31,0.35, -4.17, 2.03, 1.85, 1.69, 7.30, repro,
2018-01-01,1.16, -4.71, -4.19, 1.83, 1.61, 7.06, repro,
2018-01-02,1.52, -3.91, -3.83, 1.83, 1.62, 7.07, repro,
2018-01-03,2.44, -5.18, 2.13, 1.83, 1.62, 7.04, repro,
2018-01-04,1.26, -3.98, 4.48, 1.86, 1.66, 7.21, repro,
2018-01-05,0.81, -4.66, -4.20, 1.85, 1.64, 7.11, repro,
2018-01-06,1.74, -4.94, -0.54, 1.84, 1.63, 7.08, repro,
2018-01-07,1.27, -5.13, -1.69, 1.81, 1.60, 6.94, repro,
2018-01-08,-0.01, -4.13, 5.92, 1.87, 1.66, 7.12, repro,
2018-01-09,-0.36, -3.77, 7.13, 1.87, 1.68, 7.31, repro,
2018-01-10,-0.02, -3.97, 4.71, 1.82, 1.61, 6.97, repro,
2018-01-11,0.83, -4.57, -2.34, 1.80, 1.59, 6.92, repro,
2018-01-12,1.73, -3.04, -5.48, 1.81, 1.58, 6.90, repro,
2018-01-13,1.62, -3.43, -1.44, 1.82, 1.59, 6.97, repro,
2018-01-14,1.65, -4.09, -0.33, 1.84, 1.61, 7.06, repro,
2018-01-15,1.21, -4.06, -2.78, 1.86, 1.67, 7.20, repro,
2018-01-16,1.09, -4.19, -4.77, 1.85, 1.64, 7.17, repro,
2018-01-17,0.76, -3.68, -3.17, 1.81, 1.58, 6.95, repro,
2018-01-18,2.05, -3.31, -2.84, 1.82, 1.60, 6.97, repro,
2018-01-19,1.42, -3.72, 3.36, 1.88, 1.66, 7.17, repro,
2018-01-20,1.23, -3.75, 7.66, 1.88, 1.67, 7.33, repro,
2018-01-21,1.34, -3.83, 2.83, 1.92, 1.71, 7.58, repro,
2018-01-22,0.58, -3.76, -1.51, 1.81, 1.61, 7.02, repro,
2018-01-23,1.22, -3.74, -1.08, 1.81, 1.61, 7.00, repro,
2018-01-24,0.82, -3.42, 1.54, 1.89, 1.67, 7.29, repro,
2018-01-25,0.97, -2.36, 9.60, 1.88, 1.67, 7.24, repro,
2018-01-26,1.17, -3.03, -2.20, 1.86, 1.66, 7.14, repro,
2018-01-27,2.09, -3.40, 1.28, 1.85, 1.67, 7.19, repro,
2018-01-28,2.40, -2.05, -7.32, 1.84, 1.64, 7.08, repro,
2018-01-29,1.64, -3.44, -7.39, 1.85, 1.64, 7.13, repro,
2018-01-30,2.03, -4.46, 0.47, 1.86, 1.65, 7.20, repro,
2018-01-31,1.23, -3.91, 5.43, 1.87, 1.66, 7.23, repro,
2018-02-01,1.52, -4.61, -0.16, 1.85, 1.64, 7.13, repro,
2018-02-02,1.19, -4.18, -4.53, 1.86, 1.65, 7.19, repro,
2018-02-03,2.19, -4.91, -0.66, 1.84, 1.65, 7.10, repro,
2018-02-04,1.07, -2.96, -0.44, 1.90, 1.74, 7.38, repro,
2018-02-05,2.31, -3.32, 3.36, 1.88, 1.69, 7.23, repro,
2018-02-06,2.00, -3.75, 2.08, 1.95, 1.70, 7.53, repro,
2018-02-07,2.03, -3.68, -0.54, 1.89, 1.69, 7.36, repro,
2018-02-08,1.59, -3.96, -4.60, 1.88, 1.66, 7.18, repro,
2018-02-09,0.63, -3.94, 2.31, 1.88, 1.71, 7.28, repro,
2018-02-10,0.34, -3.21, 3.29, 1.87, 1.65, 7.19, repro,
2018-02-11,0.99, -2.47, 3.22, 1.85, 1.65, 7.15, repro,
2018-02-12,0.49, -2.65, 3.11, 1.89, 1.74, 7.47, repro,
2018-02-13,0.99, -3.02, 0.63, 1.91, 1.73, 7.41, repro,
2018-02-14,1.87, -3.60, -2.14, 1.98, 1.80, 7.68, repro,
2018-02-15,1.17, -3.13, 0.83, 1.85, 1.64, 7.15, repro,
2018-02-16,0.68, -3.61, 1.41, 1.85, 1.70, 7.25, repro,
2018-02-17,1.72, -2.87, 4.25, 1.86, 1.66, 7.19, repro,
2018-02-18,1.07, -4.14, 8.89, 1.92, 1.77, 7.59, repro,
2018-02-19,0.77, -4.24, 6.78, 1.90, 1.68, 7.40, repro,
2018-02-20,0.61, -3.26, 2.80, 1.85, 1.62, 7.04, repro,
2018-02-21,1.68, -2.67, -2.33, 1.88, 1.73, 7.42, repro,
2018-02-22,-0.16, -3.14, -1.12, 1.89, 1.67, 7.30, repro,
2018-02-23,0.98, -2.76, -2.46, 1.98, 1.75, 7.51, repro,
2018-02-24,1.11, -3.92, 4.54, 1.90, 1.65, 7.27, repro,